[[{"header":{"parameterUnit":"m.s-1","parameterCategory":1,"la1":30.2991,"la2":30.254,"lo1":-89.0895,"lo2":-89.0444,"dy":0.0017,"dx":0.0017,"nx":28,"ny":28,"refTime":"2024-06-02T21:00:00:Z","depth":0,"parameterNumber":2,"parameterNumberName":"U-component_of_WINDS"},"data":[0,0,0,0,0,0,0,0,0,0,0,0,0,0,0,0,0,0,0,0,0,0,0,0,0,0,0,0,0,0,0,0,0,0,0,0,0,0,0,0,0,0,0,0,0,0,0,0,0,0,0,0,0,0,0,0,0,0,0.0635,0.0636,0,0.0689,0.069,0.069,0.0715,0.0714,0.0714,0.0714,0.0769,0.077,0.0772,0,0,0,0,0,0,0,0,0,0,0,0,0,0.0551,0.0553,0.0635,0.0636,0.0636,0.0689,0.069,0.0691,0.0715,0.0714,0.0714,0.0714,0.0768,0.077,0.0772,0,0,0,0,0,0,0,0,0,0,0,0,0,0.0595,0.0553,0.0635,0.0655,0.0657,0.0689,0.069,0.0691,0.0715,0.0714,0.0714,0.0714,0.0768,0.077,0.0772,0.0788,0,0,0.0779,0.078,0,0,0,0,0,0,0,0,0.0592,0.0598,0.0651,0.0653,0.0656,0.0695,0.068,0.0723,0.0715,0.0693,0.0714,0.0714,0.0744,0.0748,0.0759,0.0791,0.0793,0.0779,0.0781,0.0782,0.0782,0,0,0,0,0,0,0,0.0589,0.0595,0.0656,0.0652,0.0655,0.0661,0.0667,0.0689,0.0718,0.0695,0.0696,0.0703,0.0746,0.0757,0.076,0.0794,0.0779,0.0781,0.0783,0.0783,0.0842,0.0842,0,0,0,0,0,0,0.0583,0.0593,0.0655,0.0658,0.0623,0.0662,0.0669,0.0683,0.0718,0.0723,0.0703,0.0704,0.0753,0.0758,0.0762,0.0784,0.0782,0.0784,0.0785,0.0842,0.0842,0.0842,0,0,0,0,0,0,0.0581,0.0588,0.0652,0.0626,0.0635,0.0664,0.0679,0.0684,0.0695,0.0724,0.073,0.0708,0.0753,0.0759,0.0782,0.0786,0.0785,0.0787,0.0841,0.0842,0.0842,0.0826,0,0,0,0,0,0,0.0579,0.0587,0.0594,0.0626,0.0636,0.0671,0.0679,0.0685,0.0699,0.07,0.0731,0.0736,0.0753,0.0778,0.0784,0.0789,0.0789,0.0841,0.0842,0.0842,0.0826,0.0826,0.0825,0,0,0,0,0,0.0576,0.0587,0.0594,0.0602,0.0645,0.0671,0.0677,0.0697,0.0699,0.0706,0.0725,0.0735,0.0784,0.078,0.0787,0.0793,0.0841,0.0841,0.0842,0.0827,0.0826,0.0825,0,0,0,0,0,0,0.0554,0.0592,0.06,0.0622,0.0644,0.0675,0.0684,0.0695,0.0716,0.0717,0.074,0.0747,0.0767,0.0782,0.0777,0.081,0.0814,0.0815,0.08,0.0799,0.0799,0.0795,0.079,0,0,0,0,0,0.0552,0.0571,0.0603,0.0619,0.0629,0.0655,0.0667,0.0681,0.0704,0.0713,0.0733,0.0755,0.0775,0.0788,0.0808,0.0829,0.0836,0.0836,0.0835,0.0835,0.0836,0.0848,0.0849,0.0843,0.0843,0.0843,0,0,0.0548,0.0571,0.0581,0.0615,0.0634,0.0652,0.0662,0.0682,0.0696,0.0715,0.0738,0.0754,0.078,0.0801,0.0812,0.0814,0.0839,0.0835,0.0835,0.0836,0.0849,0.0849,0.0849,0.0844,0.0844,0.0844,0,0,0.055,0.0569,0.0585,0.0604,0.0631,0.0648,0.0652,0.0682,0.0694,0.0717,0.0732,0.0749,0.0784,0.0801,0.0815,0.0824,0.0834,0.083,0.0827,0.0839,0.0839,0.084,0.0843,0.0844,0.0831,0.0831,0.0831,0,0.0542,0.0571,0.0592,0.0611,0.0626,0.0645,0.0661,0.0677,0.071,0.0719,0.0722,0.0766,0.0784,0.081,0.0813,0.0823,0.0828,0.0827,0.0837,0.0838,0.0839,0.0842,0.0844,0.083,0.083,0.0831,0.0831,0,0.0559,0.0579,0.0588,0.062,0.0636,0.0653,0.0677,0.069,0.0702,0.0719,0.0742,0.0765,0.0791,0.0798,0.081,0.0826,0.0827,0.0833,0.0837,0.0838,0.0842,0.0844,0.0829,0.083,0.083,0.083,0,0,0.0549,0.0592,0.0596,0.061,0.0642,0.0658,0.0676,0.0701,0.0712,0.0734,0.075,0.0779,0.0785,0.08,0.0814,0.0824,0.0831,0.083,0.0831,0.0829,0.085,0.0845,0.0846,0.0838,0.0838,0.0838,0.0848,0,0.0556,0.059,0.061,0.0635,0.0654,0.0673,0.0688,0.0709,0.0726,0.0744,0.0761,0.0782,0.0788,0.0798,0.0808,0.0827,0.0835,0.0827,0.0853,0.0853,0.0846,0.0848,0.0843,0.0851,0.0849,0.085,0.085,0,0.0568,0.059,0.0617,0.0648,0.0656,0.067,0.0695,0.0712,0.0736,0.0748,0.0765,0.0779,0.0799,0.0801,0.0829,0.0823,0.0835,0.0846,0.0846,0.085,0.0852,0.0852,0.0854,0.0855,0.0852,0.0852,0.0852,0,0.0558,0.0594,0.0616,0.0628,0.0663,0.0673,0.0688,0.0712,0.0726,0.0748,0.0757,0.0781,0.0794,0.0812,0.0832,0.0832,0.0858,0.0862,0.0867,0.0867,0.0872,0.0871,0.0876,0.0879,0.0879,0.0879,0.0879,0,0.0563,0.058,0.0612,0.0625,0.0644,0.0667,0.0684,0.0701,0.0722,0.0739,0.0756,0.0771,0.0797,0.0815,0.0831,0.0852,0.0858,0.0867,0.0871,0.0866,0.0864,0.0874,0.0874,0.088,0.0879,0.0879,0.0879,0,0.0556,0.0578,0.0603,0.0634,0.0643,0.0655,0.0682,0.0696,0.0713,0.0734,0.074,0.0766,0.0789,0.0811,0.0841,0.0852,0.0872,0.0877,0.0864,0.0866,0.0871,0.087,0.0882,0.0885,0.0885,0.0885,0.0885,0,0.0558,0.0571,0.0604,0.0617,0.0632,0.0651,0.0666,0.0689,0.0703,0.0732,0.0742,0.0766,0.0786,0.0821,0.0843,0.0866,0.0872,0.0875,0.0876,0.087,0.0873,0.0872,0.0873,0.0874,0.0874,0.0874,0.0874,0,0.0559,0.057,0.059,0.0615,0.0632,0.0652,0.0673,0.0682,0.0709,0.0724,0.0748,0.0763,0.0794,0.0818,0.0843,0.0859,0.0871,0.0874,0.0876,0.0871,0.0862,0.0867,0.0863,0.0873,0.0873,0.0873,0.0873,0.0873,0.0556,0.0569,0.0595,0.0617,0.0635,0.0654,0.0669,0.0688,0.0708,0.0735,0.0747,0.0771,0.0795,0.0831,0.0846,0.0865,0.0868,0.0871,0.0872,0.0873,0.0872,0.0859,0.0869,0.087,0.087,0.087,0.087,0,0.0559,0.0576,0.0597,0.0626,0.0643,0.0653,0.0677,0.0691,0.0712,0.0733,0.0753,0.078,0.0803,0.0827,0.0851,0.0862,0.0868,0.0867,0.0867,0.087,0.0868,0.0863,0.0862,0.0862,0.0862,0.0862,0.0862,0.0862,0.0562,0.0584,0.0597,0.0629,0.0646,0.0669,0.0682,0.07,0.0717,0.0747,0.0766,0.0782,0.0804,0.083,0.0852,0.0858,0.0867,0.0864,0.0872,0.087,0.087,0.0871,0.0867,0.0866,0.0866,0.0873,0.0874,0.0874]},{"header":{"parameterUnit":"m.s-1","parameterCategory":1,"la1":30.2991,"la2":30.254,"lo1":-89.0895,"lo2":-89.0444,"dy":0.0017,"dx":0.0017,"nx":28,"ny":28,"refTime":"2024-06-02T21:00:00:Z","depth":0,"parameterNumber":3,"parameterNumberName":"V-component_of_WINDS"},"data":[0,0,0,0,0,0,0,0,0,0,0,0,0,0,0,0,0,0,0,0,0,0,0,0,0,0,0,0,0,0,0,0,0,0,0,0,0,0,0,0,0,0,0,0,0,0,0,0,0,0,0,0,0,0,0,0,0,0,4.5648,4.5648,0,4.5648,4.5648,4.5648,4.5571,4.5569,4.5567,4.5565,4.5565,4.5567,4.5569,0,0,0,0,0,0,0,0,0,0,0,0,0,4.5579,4.5581,4.5648,4.5648,4.5648,4.5648,4.5648,4.5648,4.5572,4.5569,4.5567,4.5564,4.5564,4.5567,4.5569,0,0,0,0,0,0,0,0,0,0,0,0,0,4.5597,4.5581,4.5648,4.5609,4.5606,4.5648,4.5648,4.5648,4.5572,4.5569,4.5566,4.5563,4.5564,4.5566,4.5569,4.5647,0,0,4.5578,4.5579,0,0,0,0,0,0,0,0,4.5596,4.56,4.5615,4.5612,4.5608,4.5606,4.5624,4.5648,4.5573,4.5585,4.5565,4.5562,4.5581,4.5582,4.5589,4.5647,4.5647,4.5578,4.558,4.5581,4.5582,0,0,0,0,0,0,0,4.5595,4.5599,4.5648,4.5615,4.5611,4.5592,4.5591,4.5628,4.56,4.5584,4.5578,4.5579,4.5579,4.5587,4.5589,4.5647,4.5578,4.558,4.5582,4.5583,4.5769,4.5772,0,0,0,0,0,0,4.5599,4.5599,4.5648,4.5648,4.5595,4.5596,4.5595,4.561,4.5599,4.5595,4.5582,4.5576,4.5583,4.5585,4.5588,4.5679,4.5581,4.5584,4.5585,4.5766,4.5769,4.5773,0,0,0,0,0,0,4.5598,4.5604,4.5648,4.5622,4.5626,4.56,4.5618,4.5612,4.5619,4.5598,4.5593,4.5595,4.5581,4.5584,4.5633,4.5678,4.5585,4.5587,4.5762,4.5767,4.5771,4.586,0,0,0,0,0,0,4.5596,4.5604,4.5634,4.5623,4.5627,4.5693,4.5621,4.5614,4.5625,4.5617,4.5609,4.5605,4.5579,4.5629,4.5636,4.568,4.559,4.5758,4.5764,4.577,4.5853,4.5868,4.588,0,0,0,0,0,4.5594,4.5659,4.5636,4.5642,4.5664,4.5696,4.5698,4.5667,4.5629,4.5658,4.5644,4.5605,4.5672,4.5635,4.5642,4.5687,4.5755,4.5762,4.5769,4.5847,4.5865,4.588,0,0,0,0,0,0,4.5676,4.5657,4.5631,4.5695,4.5698,4.5683,4.5719,4.5687,4.5701,4.5693,4.5653,4.5652,4.5707,4.5702,4.5661,4.5762,4.5706,4.5715,4.5763,4.578,4.5793,4.5793,4.5592,0,0,0,0,0,4.5702,4.5729,4.5711,4.5769,4.5771,4.5745,4.5758,4.5734,4.5735,4.5736,4.5725,4.5728,4.5749,4.5764,4.5783,4.5852,4.5849,4.5887,4.59,4.5911,4.5919,4.5955,4.5972,4.5797,4.5797,4.5797,0,0,4.5755,4.5747,4.5767,4.5785,4.5784,4.5813,4.5747,4.5781,4.5802,4.5741,4.5786,4.5779,4.5779,4.5838,4.5864,4.5836,4.5967,4.592,4.5929,4.5931,4.5965,4.5981,4.5996,4.5802,4.5801,4.58,0,0,4.5866,4.5864,4.5911,4.5912,4.5912,4.5894,4.5905,4.5896,4.5888,4.5933,4.5888,4.5912,4.595,4.5952,4.5958,4.6069,4.6034,4.6076,4.6146,4.6182,4.6195,4.6207,4.6247,4.6262,4.6085,4.6085,4.6085,0,4.5932,4.5974,4.594,4.5976,4.5985,4.5931,4.5979,4.5981,4.5987,4.5994,4.5962,4.6008,4.6005,4.6064,4.6091,4.6098,4.6109,4.6077,4.6196,4.6208,4.6219,4.6256,4.6271,4.609,4.6089,4.6089,4.6088,0,4.6055,4.6085,4.6123,4.613,4.6143,4.6186,4.6157,4.6174,4.6149,4.6134,4.6181,4.6174,4.619,4.6202,4.6178,4.6258,4.624,4.6203,4.6146,4.6241,4.6275,4.629,4.6097,4.6096,4.6094,4.6093,0,0,4.6218,4.6205,4.622,4.6223,4.6218,4.6241,4.628,4.6296,4.6311,4.6317,4.6349,4.6382,4.6347,4.6354,4.6329,4.636,4.6449,4.6319,4.6318,4.6343,4.6536,4.6565,4.6582,4.6425,4.6428,4.643,4.6536,0,4.6326,4.6393,4.6363,4.6433,4.646,4.6409,4.6443,4.6444,4.6431,4.6452,4.6437,4.6461,4.6414,4.6417,4.6446,4.6432,4.6487,4.6424,4.6454,4.6456,4.6456,4.66,4.663,4.6731,4.655,4.6552,4.6553,0,4.6461,4.6472,4.6545,4.6535,4.6545,4.6577,4.6589,4.6609,4.6609,4.6597,4.6605,4.6573,4.661,4.6554,4.6605,4.6562,4.6573,4.6568,4.6571,4.6573,4.651,4.6605,4.6762,4.6778,4.6574,4.6573,4.6571,0,4.6573,4.6606,4.6654,4.6657,4.6647,4.6671,4.6667,4.6664,4.6675,4.6685,4.6692,4.6707,4.6715,4.6727,4.6699,4.6661,4.6754,4.6695,4.6745,4.6746,4.6767,4.6766,4.6928,4.6774,4.6774,4.6774,4.6773,0,4.6696,4.6743,4.6704,4.6733,4.6784,4.6748,4.6799,4.679,4.6787,4.6814,4.677,4.6796,4.6758,4.678,4.6759,4.6804,4.6808,4.6799,4.6793,4.6804,4.6805,4.681,4.6802,4.6778,4.6777,4.6776,4.6775,0,4.683,4.6806,4.6855,4.6841,4.6838,4.6876,4.6864,4.689,4.6874,4.6908,4.6914,4.6889,4.6913,4.6886,4.6908,4.6893,4.6955,4.6938,4.6955,4.695,4.7002,4.6998,4.7173,4.7194,4.7027,4.7028,4.703,0,4.6911,4.6945,4.6935,4.695,4.6949,4.6973,4.6985,4.6951,4.6964,4.6966,4.6992,4.7012,4.7026,4.7066,4.705,4.7066,4.7049,4.711,4.7051,4.7061,4.705,4.7049,4.7052,4.7122,4.7124,4.7125,4.7127,0,4.7056,4.7043,4.706,4.7075,4.7089,4.7098,4.7104,4.7119,4.7083,4.7101,4.7124,4.7135,4.7157,4.7177,4.7188,4.7184,4.715,4.7145,4.7157,4.7168,4.7177,4.7173,4.6988,4.7141,4.714,4.7139,4.7138,4.7137,4.7166,4.7194,4.7191,4.7213,4.7213,4.722,4.7244,4.7231,4.725,4.7265,4.7243,4.7273,4.7271,4.7283,4.7283,4.7305,4.7279,4.7297,4.7302,4.7307,4.7315,4.7173,4.7307,4.7307,4.7306,4.7306,4.7305,0,4.7309,4.7305,4.7325,4.7334,4.7351,4.7317,4.7321,4.7338,4.7364,4.7365,4.738,4.7407,4.7426,4.7411,4.7427,4.7448,4.7432,4.7453,4.7451,4.7451,4.7337,4.7325,4.7465,4.7465,4.7465,4.7465,4.7465,4.7465,4.7386,4.7432,4.7417,4.7463,4.7458,4.7486,4.7492,4.7497,4.7498,4.753,4.7546,4.7536,4.753,4.7546,4.7562,4.7557,4.7565,4.7591,4.7581,4.7475,4.7459,4.7444,4.7432,4.7593,4.7594,4.7693,4.7694,4.7695]}]]